User: anonymous
Location: Vancouver
(49.2500°N, 123.1330°W)
Time: 21:47:13
(UTC-07:00)
Language:

AO-27 - Orbit

View from above orbital plane
View from above orbital plane
View from above satellite
View from above satellite

Ground track
Ground track

The orbit data is extracted from the following two-line orbital elements,

1 22825U 93061C   14294.45489928  .00000244  00000-0  11248-3 0  8018
2 22825 098.6769 239.9396 0007278 289.4554 208.5350 14.29763815 98824
Epoch (UTC): 21 October 2014 10:55:03
Eccentricity: 0.0007278
inclination: 98.6769°
perigee height: 787 km
apogee height: 798 km
right ascension of ascending node: 239.9396°
argument of perigee: 289.4554°
revolutions per day: 14.29763815
mean anomaly at epoch: 208.5350°
orbit number at epoch: 9882

The dashed part of the orbit path shows where the satellite is in the earth's shadow,  

DLR